Location: Saluda
(35.2377°N, 82.3468°W)
Time: 15:19:32
(UTC+00:00)

Explorer 11/Cluster Stage 4 - All Passes

Search period start: 03 October 2022 00:00
Search period end: 13 October 2022 00:00
Orbit: 466 x 1249 km, 28.8° (Epoch: 02 October)

Date Brightness Start Highest point End Pass type
(mag) Time Alt. Az. Time Alt. Az. Time Alt. Az.
03 Oct - 15:31:03 10° SSW 15:37:40 28° SSE 15:43:58 10° ESE daylight
03 Oct - 17:18:45 10° WSW 17:26:21 46° S 17:33:02 10° E daylight
03 Oct - 19:07:47 10° WSW 19:15:03 50° S 19:21:06 10° ESE daylight
03 Oct - 20:57:28 10° W 21:03:19 31° SSW 21:08:11 10° SE daylight
03 Oct - 22:50:15 10° SW 22:50:49 10° SW 22:51:20 10° SSW daylight
04 Oct - 13:34:07 10° SSE 13:36:41 12° SSE 13:39:18 10° SE daylight
04 Oct - 15:18:06 10° SW 15:24:59 30° SSE 15:31:38 10° E daylight
04 Oct - 17:05:57 10° WSW 17:13:42 48° S 17:20:39 10° E daylight
04 Oct - 18:55:03 10° WSW 19:02:29 50° S 19:08:44 10° ESE daylight
04 Oct - 20:44:48 10° W 20:50:46 30° SSW 20:55:46 10° SE daylight
05 Oct - 13:20:24 10° S 13:23:59 14° SSE 13:27:38 10° ESE daylight
05 Oct - 15:05:13 10° SW 15:12:17 33° SSE 15:19:12 10° E daylight
05 Oct - 16:53:12 10° WSW 17:01:03 51° S 17:08:13 10° E daylight
05 Oct - 18:42:19 10° W 18:49:53 50° S 18:56:21 10° ESE daylight
05 Oct - 20:32:10 10° W 20:38:11 29° SSW 20:43:18 10° SE daylight
06 Oct - 13:07:03 10° S 13:11:16 15° SSE 13:15:37 10° ESE daylight
06 Oct - 14:52:25 10° SW 14:59:34 36° SSE 15:06:45 10° E daylight
06 Oct - 16:40:28 10° WSW 16:48:23 52° S 16:55:45 10° E daylight
06 Oct - 18:29:36 10° W 18:37:15 49° S 18:43:54 10° ESE daylight
06 Oct - 20:19:31 10° W 20:25:34 27° SSW 20:30:47 10° SSE daylight
07 Oct - 12:53:54 10° S 12:58:32 17° SSE 13:03:25 10° ESE daylight
07 Oct - 14:39:39 10° SW 14:46:50 38° SSE 14:54:13 10° E daylight
07 Oct - 16:27:46 10° WSW 16:35:42 54° S 16:43:14 10° ESE daylight
07 Oct - 18:16:53 10° W 18:24:36 48° SSW 18:31:26 10° ESE daylight
07 Oct - 20:06:54 10° WSW 20:12:55 26° SSW 20:18:11 10° SSE daylight
08 Oct - 12:40:55 10° S 12:45:50 19° SSE 12:51:05 10° ESE daylight
08 Oct - 14:26:57 10° SW 14:34:08 41° SSE 14:41:39 10° E daylight
08 Oct - 16:15:06 10° WSW 16:23:01 55° S 16:30:42 10° ESE daylight
08 Oct - 18:04:12 10° W 18:11:55 46° SSW 18:18:54 10° ESE daylight
08 Oct - 19:54:19 10° WSW 20:00:15 24° SSW 20:05:33 10° SSE daylight
09 Oct - 12:28:00 10° SSW 12:33:07 21° SSE 12:38:39 10° ESE daylight
09 Oct - 14:14:17 10° SW 14:21:25 43° SSE 14:29:02 10° E daylight
09 Oct - 16:02:28 10° WSW 16:10:19 55° S 16:18:07 10° ESE daylight
09 Oct - 17:51:33 10° W 17:59:13 45° SSW 18:06:20 10° SE daylight
09 Oct - 19:41:46 10° WSW 19:47:33 23° SSW 19:52:49 10° SSE daylight
10 Oct - 12:15:13 10° SSW 12:20:24 22° SSE 12:26:09 10° ESE daylight
10 Oct - 14:01:41 10° SW 14:08:42 45° SSE 14:16:23 10° E daylight
10 Oct - 15:49:51 10° WSW 15:57:36 55° S 16:05:30 10° ESE daylight
10 Oct - 17:38:54 10° W 17:46:31 43° SSW 17:53:42 10° SE daylight
10 Oct - 19:29:16 10° WSW 19:34:50 21° SSW 19:39:59 10° SSE daylight
11 Oct - 12:02:30 10° SSW 12:07:43 24° SSE 12:13:35 10° ESE daylight
11 Oct - 13:49:06 10° WSW 13:56:01 46° SSE 14:03:42 10° E daylight
11 Oct - 15:37:17 10° WSW 15:44:54 55° S 15:52:50 10° ESE daylight
11 Oct - 17:26:18 10° W 17:33:47 40° SSW 17:41:01 10° SE daylight
11 Oct - 19:16:51 10° WSW 19:22:07 19° SSW 19:27:04 10° S daylight
12 Oct - 11:49:51 10° SSW 11:55:02 26° SSE 12:00:58 10° ESE daylight
12 Oct - 13:36:35 10° WSW 13:43:20 48° S 13:51:00 10° E daylight
12 Oct - 15:24:44 10° WSW 15:32:12 54° S 15:40:08 10° ESE daylight
12 Oct - 17:13:43 10° W 17:21:03 38° SSW 17:28:17 10° SE daylight
12 Oct - 19:04:30 10° WSW 19:09:22 17° SSW 19:14:02 10° S daylight
